MCA123 LTFJ-UTAA

Flight info

Callsign MCA123
Flight time 2h 52m
Altitude 35000
Route LTAA/24R ERTAS1P ERTAS DCT PAZAR UW702 INB UN644 SIN KARDE ROLIN N644 LAGAS ADEKI LESGI RODAR A909 TUNEK DCT KESEK A240 INRAK B449 MAMED MAMED11AXUGMUR UTAA/11R
Aircraft A319/M-SDE3GILORW/C

Departure

Time 2026-04-26 04:39
Airport Istanbul Sabiha Gökçen International Airport (LTFJ)

Arrival

Time 2026-04-26 07:32
Airport Ashgabat International Airport (UTAA)
Time Latitude Longitude Altitude Speed Heading
2026-04-26 04:30 40.90454 29.31238 316 ft 0 kts 330°
2026-04-26 04:33 40.90443 29.31249 316 ft 2 kts 322°
2026-04-26 04:34 40.90426 29.31267 316 ft 4 kts 322°
2026-04-26 04:34 40.90419 29.31273 316 ft 0 kts 349°
2026-04-26 04:34 40.90418 29.31273 316 ft 0 kts 348°
2026-04-26 04:36 40.90422 29.31279 316 ft 2 kts 89°
2026-04-26 04:36 40.90411 29.31330 315 ft 7 kts 95°
2026-04-26 04:36 40.90438 29.31407 314 ft 11 kts 72°
2026-04-26 04:36 40.90396 29.31461 314 ft 10 kts 159°
2026-04-26 04:37 40.90322 29.31504 313 ft 12 kts 155°
2026-04-26 04:37 40.90306 29.31578 313 ft 10 kts 64°
2026-04-26 04:37 40.90335 29.31655 314 ft 7 kts 63°
2026-04-26 04:37 40.90354 29.31727 313 ft 8 kts 131°
2026-04-26 04:38 40.90293 29.31736 313 ft 10 kts 212°
2026-04-26 04:38 40.90222 29.31681 311 ft 13 kts 209°
2026-04-26 04:38 40.90141 29.31648 311 ft 8 kts 179°
2026-04-26 04:38 40.90110 29.31611 311 ft 16 kts 244°
2026-04-26 04:39 40.89952 29.31180 316 ft 86 kts 244°
2026-04-26 04:39 40.89589 29.30199 319 ft 142 kts 244°
2026-04-26 04:39 40.89247 29.29268 516 ft 158 kts 244°
2026-04-26 04:39 40.88760 29.27917 1011 ft 172 kts 244°
2026-04-26 04:40 40.88221 29.26427 1552 ft 188 kts 244°
2026-04-26 04:40 40.87634 29.24816 2140 ft 203 kts 244°
2026-04-26 04:40 40.87000 29.23084 2702 ft 221 kts 244°
2026-04-26 04:40 40.86143 29.21284 3208 ft 242 kts 224°
2026-04-26 04:41 40.84686 29.20053 3716 ft 261 kts 196°
2026-04-26 04:41 40.82851 29.19863 4220 ft 278 kts 167°
2026-04-26 04:41 40.81047 29.20980 4733 ft 295 kts 137°
2026-04-26 04:41 40.79765 29.23185 5261 ft 313 kts 121°
2026-04-26 04:42 40.78686 29.25784 5767 ft 333 kts 114°
2026-04-26 04:42 40.77867 29.28714 6270 ft 350 kts 105°
2026-04-26 04:42 40.77441 29.31916 6777 ft 355 kts 95°
2026-04-26 04:42 40.77470 29.35170 7280 ft 358 kts 84°
2026-04-26 04:43 40.77960 29.38382 7782 ft 362 kts 74°
2026-04-26 04:43 40.78918 29.41480 8289 ft 367 kts 63°
2026-04-26 04:43 40.80449 29.44200 8786 ft 373 kts 45°
2026-04-26 04:43 40.82380 29.46445 9289 ft 378 kts 41°
2026-04-26 04:44 40.84410 29.48678 9793 ft 381 kts 41°
2026-04-26 04:44 40.86481 29.50952 10300 ft 385 kts 41°
2026-04-26 04:44 40.88534 29.53222 10801 ft 389 kts 41°
2026-04-26 04:44 40.90606 29.55530 11302 ft 392 kts 41°
2026-04-26 04:45 40.92678 29.57847 11800 ft 396 kts 42°
2026-04-26 04:45 40.94783 29.60210 12303 ft 399 kts 42°
2026-04-26 04:45 40.96903 29.62594 12805 ft 402 kts 42°
2026-04-26 04:45 40.99028 29.64987 13307 ft 404 kts 42°
2026-04-26 04:46 41.01180 29.67421 13818 ft 405 kts 43°
2026-04-26 04:46 41.03308 29.69838 14320 ft 406 kts 43°
2026-04-26 04:46 41.05455 29.72276 14825 ft 408 kts 43°
2026-04-26 04:46 41.07619 29.74731 15331 ft 410 kts 43°
2026-04-26 04:47 41.09774 29.77175 15832 ft 412 kts 43°
2026-04-26 04:47 41.11950 29.79633 16334 ft 414 kts 43°
2026-04-26 04:47 41.14148 29.82111 16837 ft 417 kts 43°
2026-04-26 04:47 41.16354 29.84603 17339 ft 420 kts 43°
2026-04-26 04:48 41.20820 29.89669 18342 ft 428 kts 43°
2026-04-26 04:48 41.23083 29.92245 18844 ft 431 kts 43°
2026-04-26 04:48 41.25377 29.94859 19350 ft 435 kts 43°
2026-04-26 04:49 41.27583 29.97562 19842 ft 436 kts 50°
2026-04-26 04:49 41.29399 30.00732 20342 ft 434 kts 61°
2026-04-26 04:49 41.30710 30.04355 20849 ft 432 kts 73°
2026-04-26 04:49 41.31551 30.08153 21353 ft 431 kts 78°
2026-04-26 04:50 41.32287 30.12010 21855 ft 433 kts 79°
2026-04-26 04:50 41.33006 30.15876 22353 ft 434 kts 79°
2026-04-26 04:50 41.33730 30.19758 22834 ft 435 kts 79°
2026-04-26 04:50 41.34467 30.23681 23338 ft 435 kts 79°
2026-04-26 04:51 41.35201 30.27571 23679 ft 440 kts 79°
2026-04-26 04:51 41.35958 30.31574 23837 ft 448 kts 79°
2026-04-26 04:51 41.36728 30.35644 24002 ft 456 kts 78°
2026-04-26 04:51 41.37505 30.39745 24158 ft 464 kts 78°
2026-04-26 04:52 41.38292 30.43905 24306 ft 470 kts 78°
2026-04-26 04:52 41.39101 30.48181 24448 ft 476 kts 78°
2026-04-26 04:52 41.39908 30.52455 24682 ft 480 kts 78°
2026-04-26 04:52 41.40713 30.56721 25038 ft 480 kts 78°
2026-04-26 04:53 41.41530 30.61052 25416 ft 479 kts 78°
2026-04-26 04:53 41.42332 30.65317 25756 ft 480 kts 79°
2026-04-26 04:53 41.43142 30.69646 26094 ft 480 kts 79°
2026-04-26 04:53 41.43950 30.73981 26428 ft 480 kts 79°
2026-04-26 04:54 41.44751 30.78281 26753 ft 481 kts 79°
2026-04-26 04:54 41.45547 30.82568 27063 ft 481 kts 79°
2026-04-26 04:54 41.46351 30.86895 27373 ft 482 kts 79°
2026-04-26 04:54 41.47160 30.91265 27682 ft 483 kts 79°
2026-04-26 04:55 41.47963 30.95605 27989 ft 483 kts 79°
2026-04-26 04:55 41.48760 30.99931 28282 ft 484 kts 79°
2026-04-26 04:55 41.49561 31.04287 28530 ft 485 kts 79°
2026-04-26 04:55 41.50361 31.08647 28755 ft 487 kts 79°
2026-04-26 04:56 41.51167 31.13052 28980 ft 489 kts 79°
2026-04-26 04:56 41.51968 31.17435 29212 ft 491 kts 78°
2026-04-26 04:56 41.52777 31.21871 29439 ft 493 kts 78°
2026-04-26 04:56 41.53585 31.26303 29680 ft 494 kts 78°
2026-04-26 04:57 41.54400 31.30784 29958 ft 494 kts 78°
2026-04-26 04:57 41.55198 31.35181 30235 ft 494 kts 78°
2026-04-26 04:57 41.56005 31.39644 30505 ft 495 kts 78°
2026-04-26 04:57 41.56810 31.44104 30760 ft 495 kts 78°
2026-04-26 04:58 41.57614 31.48577 31014 ft 496 kts 78°
2026-04-26 04:58 41.58415 31.53041 31264 ft 496 kts 78°
2026-04-26 04:58 41.59218 31.57529 31516 ft 496 kts 78°
2026-04-26 04:58 41.60015 31.61992 31774 ft 496 kts 78°
2026-04-26 04:59 41.60817 31.66489 32015 ft 496 kts 78°
2026-04-26 04:59 41.61607 31.70946 32247 ft 496 kts 78°
2026-04-26 04:59 41.62396 31.75408 32462 ft 497 kts 78°
2026-04-26 04:59 41.63184 31.79876 32667 ft 497 kts 78°
2026-04-26 05:00 41.63983 31.84411 32879 ft 498 kts 78°
2026-04-26 05:00 41.64771 31.88890 33102 ft 498 kts 78°
2026-04-26 05:00 41.65557 31.93363 33322 ft 497 kts 78°
2026-04-26 05:00 41.66343 31.97852 33537 ft 497 kts 78°
2026-04-26 05:01 41.67124 32.02329 33734 ft 498 kts 78°
2026-04-26 05:01 41.67914 32.06867 33922 ft 498 kts 78°
2026-04-26 05:01 41.68694 32.11350 34118 ft 498 kts 78°
2026-04-26 05:01 41.69472 32.15837 34329 ft 498 kts 78°
2026-04-26 05:02 41.70257 32.20377 34530 ft 498 kts 78°
2026-04-26 05:02 41.71032 32.24865 34722 ft 497 kts 78°
2026-04-26 05:02 41.71800 32.29323 34904 ft 498 kts 78°
2026-04-26 05:02 41.72575 32.33841 34954 ft 501 kts 78°
2026-04-26 05:03 41.74136 32.42984 35002 ft 507 kts 78°
2026-04-26 05:03 41.75696 32.52153 35002 ft 506 kts 78°
2026-04-26 05:04 41.77246 32.61312 35004 ft 506 kts 78°
2026-04-26 05:04 41.78793 32.70514 35003 ft 506 kts 78°
2026-04-26 05:05 41.80323 32.79674 35004 ft 506 kts 78°
2026-04-26 05:05 41.81856 32.88892 35004 ft 506 kts 78°
2026-04-26 05:06 41.83377 32.98063 35004 ft 507 kts 79°
2026-04-26 05:06 41.84904 33.07316 35003 ft 509 kts 79°
2026-04-26 05:07 41.86422 33.16570 35004 ft 509 kts 79°
2026-04-26 05:07 41.87933 33.25838 35005 ft 510 kts 79°
2026-04-26 05:08 41.89433 33.35078 35004 ft 509 kts 79°
2026-04-26 05:08 41.90929 33.44338 35002 ft 510 kts 79°
2026-04-26 05:09 41.92422 33.53623 34997 ft 510 kts 79°
2026-04-26 05:09 41.93912 33.62939 34987 ft 509 kts 79°
2026-04-26 05:10 41.95164 33.72273 34980 ft 508 kts 85°
2026-04-26 05:10 41.95783 33.81665 34978 ft 507 kts 88°
2026-04-26 05:11 41.96295 33.91136 34978 ft 507 kts 88°
2026-04-26 05:11 41.96807 34.00528 34980 ft 508 kts 88°
2026-04-26 05:12 41.97329 34.09986 34977 ft 507 kts 88°
2026-04-26 05:12 41.97839 34.19384 34978 ft 508 kts 88°
2026-04-26 05:13 41.98348 34.28835 34979 ft 507 kts 88°
2026-04-26 05:13 41.98847 34.38301 34978 ft 507 kts 88°
2026-04-26 05:14 41.99338 34.47712 34978 ft 507 kts 88°
2026-04-26 05:14 41.99820 34.57126 34978 ft 507 kts 88°
2026-04-26 05:15 42.00297 34.66589 34977 ft 507 kts 89°
2026-04-26 05:15 42.00765 34.76024 34978 ft 507 kts 89°
2026-04-26 05:16 42.01230 34.85442 34980 ft 508 kts 88°
2026-04-26 05:16 42.01689 34.94920 34978 ft 508 kts 88°
2026-04-26 05:17 42.02108 35.04395 34978 ft 508 kts 90°
2026-04-26 05:17 42.01972 35.13797 34979 ft 506 kts 96°
2026-04-26 05:18 42.01462 35.23256 34978 ft 506 kts 97°
2026-04-26 05:18 42.00938 35.32634 34979 ft 506 kts 96°
2026-04-26 05:19 42.00417 35.42070 34980 ft 506 kts 96°
2026-04-26 05:19 41.99896 35.51458 34978 ft 506 kts 96°
2026-04-26 05:20 41.99370 35.60845 34980 ft 506 kts 96°
2026-04-26 05:20 41.98836 35.70271 34978 ft 506 kts 97°
2026-04-26 05:21 41.98297 35.79655 34979 ft 506 kts 97°
2026-04-26 05:21 41.97746 35.89100 34979 ft 506 kts 97°
2026-04-26 05:22 41.97187 35.98481 34980 ft 506 kts 97°
2026-04-26 05:22 41.96622 36.07875 34978 ft 506 kts 97°
2026-04-26 05:23 41.96046 36.17302 34979 ft 506 kts 97°
2026-04-26 05:23 41.95471 36.26646 34978 ft 506 kts 97°
2026-04-26 05:24 41.94883 36.36050 34978 ft 506 kts 97°
2026-04-26 05:24 41.94282 36.45491 34980 ft 506 kts 97°
2026-04-26 05:25 41.93680 36.54862 34978 ft 506 kts 97°
2026-04-26 05:25 41.93071 36.64234 34980 ft 507 kts 97°
2026-04-26 05:26 41.92455 36.73636 34980 ft 505 kts 98°
2026-04-26 05:26 41.91832 36.83026 34979 ft 506 kts 98°
2026-04-26 05:27 41.91205 36.92372 34979 ft 506 kts 98°
2026-04-26 05:27 41.90563 37.01817 34979 ft 506 kts 98°
2026-04-26 05:28 41.90253 37.11227 34978 ft 510 kts 94°
2026-04-26 05:28 41.90120 37.20772 34977 ft 513 kts 94°
2026-04-26 05:29 41.89984 37.30334 34978 ft 512 kts 94°
2026-04-26 05:29 41.89834 37.39835 34978 ft 513 kts 94°
2026-04-26 05:30 41.89672 37.49429 34979 ft 513 kts 94°
2026-04-26 05:30 41.89505 37.58974 34979 ft 513 kts 94°
2026-04-26 05:31 41.89331 37.68490 34978 ft 512 kts 95°
2026-04-26 05:31 41.89151 37.78033 34981 ft 512 kts 95°
2026-04-26 05:32 41.88959 37.87574 34980 ft 513 kts 95°
2026-04-26 05:32 41.88758 37.97104 34979 ft 513 kts 95°
2026-04-26 05:33 41.88551 38.06604 34978 ft 513 kts 95°
2026-04-26 05:33 41.88335 38.16128 34978 ft 512 kts 95°
2026-04-26 05:34 41.88110 38.25709 34978 ft 512 kts 95°
2026-04-26 05:34 41.87882 38.35218 34979 ft 512 kts 95°
2026-04-26 05:35 41.87641 38.44730 34979 ft 512 kts 95°
2026-04-26 05:35 41.87396 38.54250 34979 ft 512 kts 95°
2026-04-26 05:36 41.87140 38.63830 34977 ft 512 kts 95°
2026-04-26 05:36 41.86883 38.73220 34978 ft 512 kts 95°
2026-04-26 05:37 41.86614 38.82776 34979 ft 512 kts 96°
2026-04-26 05:37 41.86337 38.92267 34978 ft 513 kts 96°
2026-04-26 05:38 41.86048 39.01859 34982 ft 518 kts 96°
2026-04-26 05:38 41.85749 39.11523 34989 ft 524 kts 95°
2026-04-26 05:39 41.85439 39.21294 34997 ft 527 kts 95°
2026-04-26 05:39 41.85121 39.31103 35001 ft 527 kts 95°
2026-04-26 05:40 41.84792 39.40934 35005 ft 527 kts 95°
2026-04-26 05:40 41.84461 39.50688 35003 ft 527 kts 95°
2026-04-26 05:41 41.84116 39.60498 35003 ft 526 kts 95°
2026-04-26 05:41 41.83763 39.70258 35003 ft 527 kts 96°
2026-04-26 05:42 41.83407 39.80042 35004 ft 527 kts 96°
2026-04-26 05:42 41.83040 39.89848 35003 ft 526 kts 96°
2026-04-26 05:43 41.82666 39.99559 34989 ft 526 kts 96°
2026-04-26 05:43 41.82282 40.09333 34983 ft 526 kts 96°
2026-04-26 05:44 41.81888 40.19138 34980 ft 526 kts 96°
2026-04-26 05:44 41.81486 40.28918 34978 ft 527 kts 96°
2026-04-26 05:45 41.81077 40.38681 34978 ft 526 kts 96°
2026-04-26 05:45 41.80661 40.48436 34978 ft 526 kts 96°
2026-04-26 05:46 41.80239 40.58196 34978 ft 526 kts 96°
2026-04-26 05:46 41.79801 40.67979 34976 ft 526 kts 97°
2026-04-26 05:47 41.79327 40.77709 34979 ft 526 kts 97°
2026-04-26 05:47 41.78836 40.87497 34977 ft 528 kts 97°
2026-04-26 05:48 41.78335 40.97306 34978 ft 533 kts 96°
2026-04-26 05:48 41.77823 41.07268 34979 ft 539 kts 95°
2026-04-26 05:49 41.77052 41.22215 34979 ft 539 kts 95°
2026-04-26 05:50 41.76521 41.32212 34979 ft 539 kts 96°
2026-04-26 05:50 41.75980 41.42211 34979 ft 539 kts 96°
2026-04-26 05:51 41.75428 41.52224 34979 ft 539 kts 96°
2026-04-26 05:51 41.74873 41.62165 34978 ft 539 kts 95°
2026-04-26 05:52 41.74306 41.72195 34979 ft 539 kts 96°
2026-04-26 05:52 41.73733 41.82193 34980 ft 539 kts 96°
2026-04-26 05:53 41.73152 41.92149 34979 ft 539 kts 96°
2026-04-26 05:53 41.72561 42.02098 34980 ft 539 kts 96°
2026-04-26 05:54 41.71960 42.12083 34982 ft 539 kts 96°
2026-04-26 05:54 41.71347 42.22074 34989 ft 539 kts 96°
2026-04-26 05:55 41.70732 42.32019 34997 ft 539 kts 96°
2026-04-26 05:55 41.70102 42.42041 35001 ft 538 kts 96°
2026-04-26 05:56 41.69466 42.51999 35002 ft 539 kts 96°
2026-04-26 05:56 41.68823 42.61922 35004 ft 539 kts 96°
2026-04-26 05:57 41.68173 42.71876 35003 ft 539 kts 97°
2026-04-26 05:57 41.67517 42.81838 35003 ft 538 kts 97°
2026-04-26 05:58 41.66844 42.91826 35004 ft 539 kts 97°
2026-04-26 05:58 41.66169 43.01772 35004 ft 538 kts 97°
2026-04-26 05:59 41.65487 43.11676 35014 ft 535 kts 97°
2026-04-26 05:59 41.64798 43.21537 35028 ft 533 kts 97°
2026-04-26 06:00 41.64103 43.31377 35054 ft 531 kts 98°
2026-04-26 06:00 41.63398 43.41152 35096 ft 532 kts 97°
2026-04-26 06:01 41.62687 43.50967 35147 ft 531 kts 98°
2026-04-26 06:01 41.61966 43.60798 35172 ft 532 kts 97°
2026-04-26 06:02 41.61240 43.70612 35181 ft 532 kts 98°
2026-04-26 06:02 41.60507 43.80424 35190 ft 531 kts 98°
2026-04-26 06:03 41.59760 43.90247 35193 ft 532 kts 98°
2026-04-26 06:03 41.59004 44.00106 35199 ft 532 kts 98°
2026-04-26 06:04 41.58244 44.09876 35218 ft 531 kts 98°
2026-04-26 06:04 41.57474 44.19680 35243 ft 532 kts 98°
2026-04-26 06:05 41.56621 44.29484 35262 ft 531 kts 100°
2026-04-26 06:05 41.55636 44.39217 35265 ft 531 kts 100°
2026-04-26 06:06 41.54641 44.49004 35274 ft 531 kts 100°
2026-04-26 06:06 41.53650 44.58765 35275 ft 531 kts 100°
2026-04-26 06:07 41.52661 44.68512 35274 ft 531 kts 101°
2026-04-26 06:07 41.51665 44.78284 35275 ft 530 kts 101°
2026-04-26 06:08 41.50660 44.88023 35276 ft 531 kts 101°
2026-04-26 06:08 41.49636 44.97838 35273 ft 534 kts 100°
2026-04-26 06:09 41.48603 45.07624 35275 ft 538 kts 100°
2026-04-26 06:09 41.47551 45.17562 35276 ft 541 kts 100°
2026-04-26 06:10 41.46495 45.27457 35275 ft 541 kts 99°
2026-04-26 06:10 41.45426 45.37402 35276 ft 542 kts 99°
2026-04-26 06:11 41.44346 45.47356 35275 ft 541 kts 99°
2026-04-26 06:11 41.43260 45.57262 35275 ft 541 kts 99°
2026-04-26 06:12 41.42155 45.67233 35272 ft 541 kts 101°
2026-04-26 06:12 41.41066 45.77072 35268 ft 541 kts 101°
2026-04-26 06:13 41.39955 45.86984 35259 ft 541 kts 100°
2026-04-26 06:13 41.38829 45.96950 35263 ft 541 kts 101°
2026-04-26 06:14 41.37706 46.06809 35274 ft 541 kts 100°
2026-04-26 06:14 41.36566 46.16733 35273 ft 541 kts 101°
2026-04-26 06:15 41.35419 46.26604 35277 ft 541 kts 101°
2026-04-26 06:15 41.34260 46.36504 35275 ft 541 kts 100°
2026-04-26 06:16 41.33102 46.46373 35274 ft 541 kts 100°
2026-04-26 06:16 41.31937 46.56202 35277 ft 541 kts 100°
2026-04-26 06:17 41.30756 46.66092 35272 ft 541 kts 101°
2026-04-26 06:17 41.29559 46.75990 35274 ft 540 kts 102°
2026-04-26 06:18 41.28159 46.85785 35277 ft 538 kts 103°
2026-04-26 06:18 41.26695 46.95473 35279 ft 533 kts 103°
2026-04-26 06:19 41.25249 47.05080 35277 ft 528 kts 103°
2026-04-26 06:19 41.23812 47.14628 35276 ft 526 kts 103°
2026-04-26 06:20 41.22386 47.24091 35275 ft 527 kts 103°
2026-04-26 06:20 41.20935 47.33644 35276 ft 527 kts 103°
2026-04-26 06:21 41.19488 47.43153 35276 ft 527 kts 103°
2026-04-26 06:21 41.18030 47.52654 35278 ft 526 kts 103°
2026-04-26 06:22 41.16560 47.62185 35276 ft 527 kts 103°
2026-04-26 06:22 41.15081 47.71737 35274 ft 526 kts 104°
2026-04-26 06:23 41.13607 47.81203 35275 ft 527 kts 104°
2026-04-26 06:23 41.12120 47.90693 35259 ft 526 kts 104°
2026-04-26 06:24 41.10619 48.00184 35235 ft 527 kts 104°
2026-04-26 06:24 41.09117 48.09642 35212 ft 526 kts 104°
2026-04-26 06:25 41.07596 48.19171 35202 ft 526 kts 103°
2026-04-26 06:25 41.06082 48.28590 35201 ft 527 kts 103°
2026-04-26 06:26 41.04552 48.38077 35197 ft 526 kts 103°
2026-04-26 06:26 41.03017 48.47528 35199 ft 526 kts 103°
2026-04-26 06:27 41.01472 48.56988 35196 ft 525 kts 103°
2026-04-26 06:27 40.99925 48.66409 35203 ft 525 kts 104°
2026-04-26 06:28 40.98365 48.75881 35212 ft 525 kts 103°
2026-04-26 06:28 40.96813 48.85264 35216 ft 525 kts 103°
2026-04-26 06:29 40.95244 48.94671 35222 ft 525 kts 103°
2026-04-26 06:29 40.93668 49.04065 35221 ft 524 kts 104°
2026-04-26 06:30 40.92086 49.13437 35223 ft 521 kts 104°
2026-04-26 06:30 40.90504 49.22757 35221 ft 519 kts 104°
2026-04-26 06:31 40.88903 49.32024 35222 ft 518 kts 104°
2026-04-26 06:31 40.87247 49.41235 35221 ft 517 kts 105°
2026-04-26 06:32 40.85528 49.50453 35221 ft 517 kts 105°
2026-04-26 06:32 40.83813 49.59636 35222 ft 518 kts 105°
2026-04-26 06:33 40.82097 49.68832 35220 ft 518 kts 105°
2026-04-26 06:33 40.80373 49.78072 35224 ft 518 kts 105°
2026-04-26 06:34 40.78637 49.87297 35222 ft 519 kts 105°
2026-04-26 06:34 40.76904 49.96467 35221 ft 518 kts 105°
2026-04-26 06:35 40.75160 50.05653 35220 ft 517 kts 105°
2026-04-26 06:35 40.73403 50.14852 35219 ft 518 kts 106°
2026-04-26 06:36 40.71640 50.24046 35221 ft 517 kts 106°
2026-04-26 06:36 40.69874 50.33204 35221 ft 518 kts 105°
2026-04-26 06:37 40.68106 50.42338 35222 ft 517 kts 106°
2026-04-26 06:37 40.66325 50.51500 35221 ft 517 kts 105°
2026-04-26 06:38 40.64536 50.60644 35221 ft 517 kts 105°
2026-04-26 06:38 40.62738 50.69820 35220 ft 518 kts 106°
2026-04-26 06:39 40.60941 50.78984 35220 ft 518 kts 106°
2026-04-26 06:39 40.59135 50.88117 35221 ft 517 kts 107°
2026-04-26 06:40 40.57323 50.97211 35223 ft 515 kts 107°
2026-04-26 06:40 40.55515 51.06251 35223 ft 512 kts 107°
2026-04-26 06:41 40.53711 51.15228 35223 ft 509 kts 107°
2026-04-26 06:41 40.51893 51.24226 35219 ft 509 kts 107°
2026-04-26 06:42 40.50082 51.33168 35220 ft 508 kts 107°
2026-04-26 06:42 40.48254 51.42143 35224 ft 508 kts 107°
2026-04-26 06:43 40.46442 51.51044 35227 ft 508 kts 106°
2026-04-26 06:43 40.44781 51.60075 35239 ft 509 kts 105°
2026-04-26 06:44 40.43163 51.69083 35245 ft 509 kts 105°
2026-04-26 06:44 40.41527 51.78086 35249 ft 508 kts 105°
2026-04-26 06:45 40.39866 51.87106 35248 ft 508 kts 105°
2026-04-26 06:45 40.38195 51.96117 35250 ft 509 kts 105°
2026-04-26 06:46 40.36521 52.05099 35249 ft 509 kts 105°
2026-04-26 06:46 40.34837 52.14084 35250 ft 509 kts 105°
2026-04-26 06:47 40.33154 52.23021 35251 ft 509 kts 106°
2026-04-26 06:47 40.31457 52.31990 35249 ft 508 kts 106°
2026-04-26 06:48 40.29750 52.40957 35250 ft 509 kts 106°
2026-04-26 06:48 40.28040 52.49909 35250 ft 508 kts 105°
2026-04-26 06:49 40.26167 52.58851 35250 ft 507 kts 110°
2026-04-26 06:49 40.23670 52.67441 35249 ft 506 kts 115°
2026-04-26 06:50 40.21012 52.75903 35251 ft 506 kts 115°
2026-04-26 06:50 40.18332 52.84398 35249 ft 506 kts 115°
2026-04-26 06:51 40.15660 52.92862 35250 ft 508 kts 115°
2026-04-26 06:51 40.11608 53.05672 35248 ft 510 kts 115°
2026-04-26 06:52 40.08905 53.14180 35250 ft 510 kts 115°
2026-04-26 06:52 40.06182 53.22729 35249 ft 510 kts 115°
2026-04-26 06:53 40.03467 53.31228 35249 ft 510 kts 115°
2026-04-26 06:53 40.00742 53.39731 35249 ft 510 kts 115°
2026-04-26 06:54 39.98011 53.48221 35250 ft 510 kts 115°
2026-04-26 06:54 39.95256 53.56768 35249 ft 509 kts 115°
2026-04-26 06:55 39.92511 53.65250 35251 ft 510 kts 116°
2026-04-26 06:55 39.89767 53.73737 35250 ft 510 kts 116°
2026-04-26 06:56 39.87001 53.82172 35250 ft 510 kts 116°
2026-04-26 06:56 39.84213 53.90655 35250 ft 509 kts 116°
2026-04-26 06:57 39.81446 53.99086 35250 ft 509 kts 116°
2026-04-26 06:57 39.78667 54.07543 35251 ft 509 kts 116°
2026-04-26 06:58 39.75877 54.16009 35250 ft 510 kts 116°
2026-04-26 06:58 39.73094 54.24432 35249 ft 510 kts 116°
2026-04-26 06:59 39.70293 54.32880 35251 ft 510 kts 116°
2026-04-26 06:59 39.67506 54.41268 35248 ft 509 kts 116°
2026-04-26 07:00 39.64685 54.49727 35249 ft 510 kts 116°
2026-04-26 07:00 39.61888 54.58091 35248 ft 510 kts 116°
2026-04-26 07:01 39.59052 54.66551 35247 ft 510 kts 116°
2026-04-26 07:01 39.56250 54.74912 35248 ft 510 kts 116°
2026-04-26 07:02 39.53417 54.83332 35248 ft 509 kts 116°
2026-04-26 07:02 39.50594 54.91679 35251 ft 509 kts 116°
2026-04-26 07:03 39.47759 55.00031 35248 ft 509 kts 116°
2026-04-26 07:03 39.44895 55.08439 35241 ft 511 kts 116°
2026-04-26 07:04 39.42020 55.16857 35233 ft 513 kts 116°
2026-04-26 07:04 39.39127 55.25304 35229 ft 513 kts 116°
2026-04-26 07:05 39.36238 55.33716 35224 ft 513 kts 116°
2026-04-26 07:05 39.33342 55.42117 35223 ft 513 kts 116°
2026-04-26 07:06 39.30436 55.50519 35223 ft 513 kts 116°
2026-04-26 07:06 39.27470 55.58869 35223 ft 512 kts 118°
2026-04-26 07:07 39.24334 55.67107 35221 ft 512 kts 119°
2026-04-26 07:07 39.21199 55.75297 35222 ft 512 kts 119°
2026-04-26 07:08 39.18023 55.83561 35223 ft 512 kts 119°
2026-04-26 07:08 39.14875 55.91724 35224 ft 512 kts 120°
2026-04-26 07:09 39.11695 55.99939 35224 ft 512 kts 120°
2026-04-26 07:09 39.08538 56.08074 35223 ft 512 kts 119°
2026-04-26 07:11 39.00586 56.28551 35226 ft 512 kts 117°
2026-04-26 07:11 38.98032 56.37035 34831 ft 507 kts 111°
2026-04-26 07:11 38.96893 56.41255 34332 ft 499 kts 111°
2026-04-26 07:12 38.95766 56.45452 33828 ft 492 kts 111°
2026-04-26 07:12 38.94655 56.49558 33329 ft 486 kts 111°
2026-04-26 07:12 38.93545 56.53622 32827 ft 481 kts 111°
2026-04-26 07:12 38.92440 56.57647 32327 ft 476 kts 111°
2026-04-26 07:13 38.91351 56.61601 31829 ft 471 kts 111°
2026-04-26 07:13 38.90257 56.65556 31325 ft 466 kts 112°
2026-04-26 07:13 38.89175 56.69461 30822 ft 462 kts 112°
2026-04-26 07:13 38.88096 56.73312 30320 ft 457 kts 112°
2026-04-26 07:14 38.87028 56.77118 29820 ft 453 kts 112°
2026-04-26 07:14 38.85976 56.80873 29322 ft 449 kts 112°
2026-04-26 07:14 38.84921 56.84647 28817 ft 446 kts 112°
2026-04-26 07:14 38.83893 56.88325 28321 ft 442 kts 112°
2026-04-26 07:15 38.82854 56.92039 27820 ft 439 kts 112°
2026-04-26 07:15 38.81835 56.95679 27320 ft 435 kts 112°
2026-04-26 07:15 38.80810 56.99334 26818 ft 432 kts 111°
2026-04-26 07:15 38.79808 57.02905 26322 ft 429 kts 111°
2026-04-26 07:16 38.78800 57.06495 25820 ft 425 kts 111°
2026-04-26 07:16 38.77803 57.10039 25320 ft 422 kts 111°
2026-04-26 07:16 38.76822 57.13519 24826 ft 419 kts 111°
2026-04-26 07:16 38.75833 57.17028 24323 ft 416 kts 111°
2026-04-26 07:17 38.75032 57.19865 23913 ft 413 kts 111°
2026-04-26 07:17 38.74072 57.23264 23419 ft 410 kts 111°
2026-04-26 07:17 38.73103 57.26688 22917 ft 407 kts 111°
2026-04-26 07:17 38.72136 57.30095 22414 ft 404 kts 111°
2026-04-26 07:18 38.71193 57.33418 21919 ft 401 kts 111°
2026-04-26 07:18 38.70235 57.36785 21415 ft 398 kts 111°
2026-04-26 07:18 38.69298 57.40077 20918 ft 395 kts 111°
2026-04-26 07:18 38.68362 57.43360 20418 ft 393 kts 111°
2026-04-26 07:19 38.67435 57.46608 19920 ft 390 kts 111°
2026-04-26 07:19 38.66505 57.49860 19418 ft 387 kts 111°
2026-04-26 07:19 38.65581 57.53087 18916 ft 384 kts 111°
2026-04-26 07:19 38.64667 57.56275 18416 ft 381 kts 111°
2026-04-26 07:20 38.63758 57.59444 17915 ft 378 kts 111°
2026-04-26 07:20 38.62868 57.62544 17422 ft 376 kts 111°
2026-04-26 07:20 38.61805 57.65607 16900 ft 370 kts 124°
2026-04-26 07:20 38.60197 57.68106 16401 ft 362 kts 140°
2026-04-26 07:21 38.58304 57.70171 15908 ft 358 kts 144°
2026-04-26 07:21 38.56377 57.72143 15409 ft 355 kts 144°
2026-04-26 07:21 38.54456 57.74098 14909 ft 353 kts 144°
2026-04-26 07:21 38.52564 57.76035 14411 ft 350 kts 144°
2026-04-26 07:22 38.50669 57.77986 13908 ft 347 kts 143°
2026-04-26 07:22 38.48821 57.79897 13413 ft 345 kts 143°
2026-04-26 07:22 38.46962 57.81823 12910 ft 342 kts 143°
2026-04-26 07:22 38.45126 57.83728 12410 ft 340 kts 143°
2026-04-26 07:23 38.43306 57.85616 11910 ft 337 kts 143°
2026-04-26 07:23 38.41479 57.87509 11404 ft 335 kts 143°
2026-04-26 07:23 38.39704 57.89347 10910 ft 333 kts 143°
2026-04-26 07:23 38.37897 57.91218 10404 ft 331 kts 143°
2026-04-26 07:24 38.36143 57.93034 9910 ft 329 kts 142°
2026-04-26 07:24 38.34364 57.94873 9406 ft 328 kts 142°
2026-04-26 07:24 38.32603 57.96693 8906 ft 326 kts 142°
2026-04-26 07:24 38.30835 57.98521 8400 ft 324 kts 142°
2026-04-26 07:25 38.29099 58.00313 7902 ft 323 kts 142°
2026-04-26 07:25 38.27353 58.02116 7398 ft 321 kts 142°
2026-04-26 07:25 38.25631 58.03892 6899 ft 320 kts 141°
2026-04-26 07:25 38.23915 58.05661 6399 ft 318 kts 141°
2026-04-26 07:26 38.22221 58.07406 5903 ft 316 kts 141°
2026-04-26 07:26 38.20523 58.09155 5403 ft 315 kts 141°
2026-04-26 07:26 38.18811 58.10915 4897 ft 313 kts 141°
2026-04-26 07:26 38.17129 58.12645 4397 ft 311 kts 141°
2026-04-26 07:27 38.15459 58.14360 3898 ft 309 kts 141°
2026-04-26 07:27 38.13810 58.16051 3402 ft 307 kts 142°
2026-04-26 07:27 38.11951 58.17373 2944 ft 303 kts 161°
2026-04-26 07:27 38.09945 58.17929 2793 ft 289 kts 171°
2026-04-26 07:28 38.08037 58.18289 2786 ft 271 kts 172°
2026-04-26 07:28 38.06232 58.18638 2781 ft 255 kts 167°
2026-04-26 07:28 38.04736 58.19595 2760 ft 228 kts 135°
2026-04-26 07:28 38.03956 58.21195 2745 ft 202 kts 109°
2026-04-26 07:29 38.03527 58.22803 2595 ft 184 kts 108°
2026-04-26 07:29 38.03073 58.24237 2330 ft 169 kts 113°
2026-04-26 07:29 38.02589 58.25531 2107 ft 156 kts 116°
2026-04-26 07:29 38.02078 58.26735 1914 ft 157 kts 118°
2026-04-26 07:30 38.01530 58.27944 1711 ft 156 kts 119°
2026-04-26 07:30 38.00989 58.29126 1497 ft 156 kts 121°
2026-04-26 07:30 38.00450 58.30298 1275 ft 154 kts 118°
2026-04-26 07:30 37.99932 58.31488 1144 ft 154 kts 118°
2026-04-26 07:31 37.99400 58.32676 910 ft 152 kts 120°
2026-04-26 07:31 37.98906 58.33783 719 ft 137 kts 119°
2026-04-26 07:31 37.98478 58.34739 693 ft 104 kts 120°
2026-04-26 07:31 37.98202 58.35354 688 ft 55 kts 119°
2026-04-26 07:32 37.98056 58.35678 687 ft 41 kts 118°
2026-04-26 07:32 37.97970 58.35871 687 ft 20 kts 120°
2026-04-26 07:32 37.97921 58.36040 686 ft 20 kts 104°
2026-04-26 07:32 37.97911 58.36228 684 ft 22 kts 90°
2026-04-26 07:33 37.97913 58.36424 684 ft 22 kts 89°
2026-04-26 07:33 37.97962 58.36564 683 ft 16 kts 26°
2026-04-26 07:33 37.98068 58.36640 683 ft 18 kts 28°
2026-04-26 07:33 37.98177 58.36716 683 ft 15 kts
2026-04-26 07:34 37.98211 58.36666 684 ft 7 kts 301°
2026-04-26 07:34 37.98240 58.36604 685 ft 8 kts 300°
2026-04-26 07:34 37.98273 58.36531 685 ft 10 kts 299°
2026-04-26 07:34 37.98314 58.36438 684 ft 13 kts 299°
2026-04-26 07:35 37.98368 58.36414 684 ft 9 kts 31°
2026-04-26 07:35 37.98431 58.36460 684 ft 11 kts 29°
2026-04-26 07:35 37.98505 58.36513 684 ft 13 kts 29°
2026-04-26 07:35 37.98592 58.36574 685 ft 14 kts 29°
2026-04-26 07:36 37.98652 58.36644 685 ft 9 kts 118°
2026-04-26 07:36 37.98615 58.36722 686 ft 10 kts 120°
2026-04-26 07:36 37.98574 58.36813 686 ft 13 kts 118°
2026-04-26 07:36 37.98535 58.36900 686 ft 9 kts 130°
2026-04-26 07:37 37.98505 58.36880 686 ft 6 kts 218°
2026-04-26 07:37 37.98465 58.36850 685 ft 5 kts 210°
2026-04-26 07:37 37.98443 58.36834 685 ft 2 kts 210°
2026-04-26 07:37 37.98440 58.36832 685 ft 0 kts 210°